Location: Cerbedi�res
(48.2182°N, 1.4849°W)
Time: 00:05:30
(UTC+00:00)

Cosmos 2360 Rocket - Pass Details

Date: 03 March 2021
Orbit: 833 x 846 km, 71.0° (Epoch: 20 April)

Event Time Altitude Azimuth Distance (km) Brightness Sun altitude
Rises 20:20:35 0° 228° (SW) 3,381 5.7 -25.0°
Reaches altitude 10° 20:23:08 10° 236° (SW) 2,452 5.0 -25.4°
Maximum altitude 20:28:28 42° 307° (NW) 1,182 3.3 -26.2°
Drops below altitude 10° 20:33:51 10° 18° (NNE) 2,474 4.7 -27.0°
Sets 20:36:27 0° 25° (NNE) 3,415 5.3 -27.4°
